Location: *
(38.9555°S, 57.3572°E)
Time: 01:27:17
(UTC+00:00)

Cosmos 1953 - Pass Details

Date: 15 July 2020
Orbit: 540 x 557 km, 82.5° (Epoch: 06 August)

Event Time Altitude Azimuth Distance (km) Brightness Sun altitude
Rises 14:07:29 0° 4° (N) 2,734 6.1 -11.6°
Reaches altitude 10° 14:09:39 10° 8° (N) 1,849 5.1 -12.0°
Maximum altitude 14:13:39 57° 86° (E) 670 2.4 -12.7°
Drops below altitude 10° 14:17:43 10° 164° (SSE) 1,875 4.7 -13.4°
Enters shadow 14:19:18 - 167° (SSE) 2,518 5.4 -13.7°
